Waarnemingen

Advertentie
Mijn weer
Lerwick, Groot Brittannië (3005): temperatuur & dauwpunt: 15.08.2018 05:00:00 - 21.08.2018 05:00:00 (BST)Lerwick, Groot Brittannië (3005): temperatuur -20cm & temperatuur -100cm: 15.08.2018 05:00:00 - 21.08.2018 05:00:00 (BST)Lerwick, Groot Brittannië (3005): windsnelheid & windstoten: 15.08.2018 05:00:00 - 21.08.2018 05:00:00 (BST)Lerwick, Groot Brittannië (3005): windrichting: 15.08.2018 05:00:00 - 21.08.2018 05:00:00 (BST)Lerwick, Groot Brittannië (3005): luchtdruk: 15.08.2018 05:00:00 - 21.08.2018 05:00:00 (BST)Lerwick, Groot Brittannië (3005): zicht: 15.08.2018 05:00:00 - 21.08.2018 05:00:00 (BST)Lerwick, Groot Brittannië (3005): Zonneschijnduur: 15.08.2018 05:00:00 - 21.08.2018 05:00:00 (BST)Lerwick, Groot Brittannië (3005): neerslag: 15.08.2018 05:00:00 - 21.08.2018 05:00:00 (BST)
Datum & Tijd tt [°C] td [°C] tt -20cm [°C] tt -100cm [°C] ff [km/u] ff [kn] fx [km/u] fx [kn] dd ppp [hPa] vv [km] sd [min] rr [mm]
21.08.2018 05:00:00 9,6 8,5 - - 4 2 - - ZZW 1019,4 50 0 0,0
21.08.2018 04:00:00 9,7 8,3 - - 13 7 - - ZW 1019,6 7 0 0,0
21.08.2018 03:00:00 9,7 8,7 - - 5 3 - - ZW 1019,7 40 0 0,0
21.08.2018 02:00:00 10,2 9,1 - - 8 4 - - WZW 1019,7 30 0 0,0
21.08.2018 01:00:00 9,4 8,5 - - 11 6 - - WZW 1020,0 28 - 0,0
21.08.2018 00:00:00 9,1 8,0 - - 11 6 - - WZW 1020,0 29 0 0,0
20.08.2018 23:00:00 10,0 8,5 - - 11 6 - - W 1019,7 26 0 0,0
20.08.2018 22:00:00 10,6 9,0 - - 13 7 - - WNW 1019,5 45 0 0,0
20.08.2018 21:00:00 11,1 8,9 - - 9 5 - - W 1019,2 40 0 0,0
20.08.2018 20:00:00 11,9 9,1 - - 11 6 - - W 1019,0 40 0 0,0
20.08.2018 19:00:00 12,3 8,4 - - 16 9 - - W 1018,6 40 0 0,0
20.08.2018 18:00:00 12,4 9,0 - - 18 10 - - W 1018,5 45 6 0,0
20.08.2018 17:00:00 12,9 9,2 - - 24 13 - - W 1018,4 35 18 0,0
20.08.2018 16:00:00 13,3 9,1 - - 28 15 - - W 1018,5 24 12 0,0
20.08.2018 15:00:00 12,8 9,0 - - 22 12 - - W 1018,1 35 0 0,4
20.08.2018 14:00:00 11,6 9,2 - - 13 7 - - WNW 1018,3 29 0 0,2
20.08.2018 13:00:00 13,1 7,9 - - 21 11 - - W 1017,7 40 0 0,0
20.08.2018 12:00:00 11,7 8,5 - - 16 9 - - NW 1017,5 45 6 0,0
20.08.2018 11:00:00 12,4 9,0 - - 21 11 - - W 1017,1 40 0 0,0
20.08.2018 10:00:00 12,2 9,3 13,5 11,7 15 8 - - WNW 1017,1 40 0 0,0
20.08.2018 09:00:00 11,9 9,1 - - 16 9 - - WNW 1016,9 45 6 0,0
20.08.2018 08:00:00 11,1 9,2 - - 13 7 - - WNW 1016,5 30 0 0,0
20.08.2018 07:00:00 10,2 9,4 - - 18 10 - - WZW 1016,0 25 0 0,0
20.08.2018 06:00:00 10,8 9,6 - - 21 11 - - WZW 1015,8 40 0 0,0
20.08.2018 05:00:00 10,7 9,5 - - 15 8 - - WZW 1015,8 30 0 0,0
20.08.2018 04:00:00 10,6 9,4 - - 9 5 - - WZW 1015,9 30 0 0,0
20.08.2018 03:00:00 10,9 9,5 - - 15 8 - - W 1016,5 30 0 0,0
20.08.2018 02:00:00 11,1 10,0 - - 21 11 - - W 1016,4 30 0 0,0
20.08.2018 01:00:00 10,8 9,7 - - 4 2 - - ZZO 1016,5 40 - 0,0
20.08.2018 00:00:00 11,0 9,7 - - 18 10 - - WNW 1016,4 30 0 0,0
19.08.2018 23:00:00 11,4 10,1 - - 18 10 - - W 1016,2 30 0 0,0
19.08.2018 22:00:00 11,0 9,8 - - 21 11 - - W 1016,2 35 0 0,0
19.08.2018 21:00:00 11,4 10,0 - - 15 8 - - WNW 1016,2 30 0 0,0
19.08.2018 20:00:00 12,0 9,8 - - 13 7 - - WNW 1016,1 40 6 0,0
19.08.2018 19:00:00 13,5 8,9 - - 9 5 - - NW 1016,0 40 36 0,0
19.08.2018 18:00:00 14,1 9,9 - - 5 3 - - ZZO 1015,8 29 18 0,0
19.08.2018 17:00:00 13,1 9,9 - - 5 3 - - ZZO 1015,8 29 18 0,0
19.08.2018 16:00:00 12,7 9,6 - - 11 6 - - ZZO 1015,5 15 0 0,0
19.08.2018 15:00:00 13,2 10,2 - - 13 7 - - Z 1015,5 35 12 0,0
19.08.2018 14:00:00 13,0 10,2 - - 9 5 - - ZZO 1015,1 30 18 0,0
19.08.2018 13:00:00 13,6 9,4 - - 9 5 - - O 1014,8 28 0 0,0
19.08.2018 12:00:00 13,0 9,5 - - 11 6 - - W 1014,7 24 6 0,0
19.08.2018 11:00:00 13,1 10,0 - - 13 7 - - W 1014,5 18 30 0,0
19.08.2018 10:00:00 13,3 8,6 13,2 11,7 4 2 - - NW 1014,1 23 30 0,0
19.08.2018 09:00:00 12,6 8,4 - - 8 4 - - W 1013,8 23 54 0,0
19.08.2018 08:00:00 11,9 9,1 - - 9 5 - - W 1013,4 22 42 0,0
19.08.2018 07:00:00 11,1 8,3 - - 5 3 - - WZW 1013,3 40 24 0,0
19.08.2018 06:00:00 11,1 8,0 - - 5 3 - - NNW 1012,9 45 0 0,0
19.08.2018 05:00:00 10,9 8,9 - - 9 5 - - W 1012,7 19 0 0,0
19.08.2018 04:00:00 11,0 9,3 - - 13 7 - - W 1012,3 19 0 0,0
19.08.2018 03:00:00 10,8 9,9 - - 11 6 - - W 1012,0 9 0 0,0
19.08.2018 02:00:00 10,8 9,6 - - 9 5 - - W 1011,7 10 0 0,0
19.08.2018 01:00:00 10,1 9,2 - - 9 5 - - W 1011,2 10 - 0,0
19.08.2018 00:00:00 11,0 9,8 - - 16 9 - - W 1010,5 11 0 0,0
18.08.2018 23:00:00 11,6 10,5 - - 21 11 - - W 1009,8 10 0 0,0
18.08.2018 22:00:00 11,5 10,1 - - 22 12 - - W 1009,1 12 0 0,0
18.08.2018 21:00:00 11,8 10,1 - - 28 15 - - W 1008,2 13 0 0,0
18.08.2018 20:00:00 12,2 10,3 - - 41 22 57 31 W 1006,9 13 0 0,0
18.08.2018 19:00:00 12,4 10,7 - - 42 23 63 34 W 1005,5 10 6 0,0
18.08.2018 18:00:00 12,6 10,6 - - 46 25 76 41 W 1004,1 14 6 0,0
18.08.2018 17:00:00 12,9 10,9 - - 59 32 80 43 W 1002,8 11 6 0,0
18.08.2018 16:00:00 12,7 10,7 - - 63 34 80 43 W 1001,6 10 24 0,0
18.08.2018 15:00:00 13,5 11,9 - - 57 31 81 44 WZW 1000,8 9 42 0,0
18.08.2018 14:00:00 13,4 11,8 - - 61 33 93 50 WZW 1000,1 9 18 0,2
18.08.2018 13:00:00 11,6 10,9 - - 63 34 85 46 ZW 999,5 5 0 0,2
18.08.2018 12:00:00 12,4 10,6 - - 61 33 80 43 ZW 999,2 8 0 0,0
18.08.2018 11:00:00 13,1 11,2 - - 59 32 78 42 ZW 998,8 16 24 0,0
18.08.2018 10:00:00 13,0 11,2 13,7 11,7 55 30 72 39 ZW 998,7 11 42 0,0
18.08.2018 09:00:00 12,1 11,0 - - 54 29 78 42 ZW 998,8 11 6 1,4
18.08.2018 08:00:00 11,2 10,3 - - 54 29 72 39 ZW 999,0 6 0 0,8
18.08.2018 07:00:00 11,4 10,7 - - 52 28 72 39 ZW 999,1 4,0 0 0,2
18.08.2018 06:00:00 11,2 10,5 - - 46 25 72 39 ZW 999,2 10 0 0,0
18.08.2018 05:00:00 11,4 10,6 - - 52 28 68 37 ZW 999,4 10 0 0,4
18.08.2018 04:00:00 11,6 10,9 - - 50 27 70 38 WZW 999,3 12 0 0,0
18.08.2018 03:00:00 11,7 10,7 - - 52 28 70 38 WZW 999,5 18 0 0,0
18.08.2018 02:00:00 11,4 10,9 - - 50 27 68 37 WZW 999,7 18 0 0,2
18.08.2018 01:00:00 12,0 11,0 - - 41 22 63 34 ZW 1000,0 15 - 0,0
18.08.2018 00:00:00 12,4 11,9 - - 42 23 65 35 ZW 1000,3 12 0 0,0
17.08.2018 23:00:00 13,1 12,6 - - 48 26 72 39 ZW 1000,3 20 0 0,2
17.08.2018 22:00:00 12,8 12,1 - - 41 22 52 28 ZZW 1000,7 5 0 0,2
17.08.2018 21:00:00 12,6 11,9 - - 35 19 54 29 Z 1001,5 9 0 0,0
17.08.2018 20:00:00 13,0 12,0 - - 31 17 - - Z 1002,1 13 0 0,2
17.08.2018 19:00:00 13,0 11,6 - - 26 14 - - Z 1002,8 18 0 0,0
17.08.2018 18:00:00 13,1 11,2 - - 28 15 - - Z 1003,6 23 0 0,0
17.08.2018 17:00:00 13,6 10,7 - - 35 19 54 29 ZZW 1004,2 24 18 0,0
17.08.2018 16:00:00 15,3 10,8 - - 37 20 54 29 ZZW 1004,5 28 60 0,0
17.08.2018 15:00:00 14,4 10,6 - - 42 23 54 29 ZW 1004,9 30 60 0,0
17.08.2018 14:00:00 14,5 10,9 - - 39 21 57 31 ZW 1005,0 26 42 0,0
17.08.2018 13:00:00 14,4 11,3 - - 42 23 55 30 ZW 1005,0 25 54 0,0
17.08.2018 12:00:00 14,6 12,0 - - 41 22 57 31 ZW 1004,6 16 48 0,0
17.08.2018 11:00:00 13,4 11,2 - - 35 19 50 27 ZW 1004,4 22 12 0,0
17.08.2018 10:00:00 12,1 10,9 13,7 11,7 34 18 46 25 ZW 1004,4 29 18 0,2
17.08.2018 09:00:00 12,7 10,8 - - 31 17 46 25 ZW 1004,1 30 6 0,0
17.08.2018 08:00:00 11,9 10,4 - - 31 17 50 27 WZW 1003,6 25 12 0,0
17.08.2018 07:00:00 11,7 10,9 - - 35 19 50 27 ZW 1003,1 10 0 0,0
17.08.2018 06:00:00 11,3 10,5 - - 34 18 50 27 WZW 1002,7 12 0 0,0
17.08.2018 05:00:00 10,6 9,7 - - 31 17 54 29 WZW 1002,4 15 0 0,0
17.08.2018 04:00:00 11,1 10,2 - - 39 21 50 27 ZW 1002,2 14 0 0,0
17.08.2018 03:00:00 11,5 10,8 - - 34 18 - - ZW 1002,1 12 0 0,0
17.08.2018 02:00:00 11,2 10,6 - - 29 16 - - ZW 1002,0 15 0 0,0
17.08.2018 01:00:00 11,4 10,9 - - 34 18 48 26 ZW 1001,7 12 - 0,2
17.08.2018 00:00:00 11,9 11,0 - - 39 21 48 26 ZW 1001,6 12 0 0,0
16.08.2018 23:00:00 12,0 10,9 - - 35 19 46 25 ZW 1001,4 15 0 0,0
16.08.2018 22:00:00 11,3 10,3 - - 34 18 - - ZW 1001,2 15 0 0,0
16.08.2018 21:00:00 11,3 10,4 - - 29 16 46 25 ZW 1000,9 18 0 0,0
16.08.2018 20:00:00 12,0 10,5 - - 37 20 54 29 ZW 1000,5 25 42 0,0
16.08.2018 19:00:00 12,7 10,7 - - 39 21 50 27 ZW 1000,0 40 36 0,0
16.08.2018 18:00:00 14,0 11,7 - - 34 18 - - ZW 1000,0 26 18 0,0
16.08.2018 17:00:00 13,7 11,5 - - 29 16 - - ZW 1000,2 19 42 0,0
16.08.2018 16:00:00 15,8 10,6 - - 28 15 - - ZW 1000,2 28 60 0,0
16.08.2018 15:00:00 15,4 10,6 - - 29 16 - - ZW 1000,1 20 60 0,0
16.08.2018 14:00:00 15,3 10,8 - - 31 17 - - ZW 1000,2 27 60 0,0
16.08.2018 13:00:00 15,7 9,9 - - 34 18 - - ZW 1000,0 30 36 0,0
16.08.2018 12:00:00 15,5 10,1 - - 28 15 - - ZZW 1000,0 18 30 0,0
16.08.2018 11:00:00 14,4 11,4 - - 28 15 - - Z 1000,2 18 60 0,0
16.08.2018 10:00:00 14,0 10,6 13,7 11,7 24 13 - - Z 1000,3 28 60 0,0
16.08.2018 09:00:00 13,2 10,6 - - 21 11 - - Z 1000,5 17 60 0,0
16.08.2018 08:00:00 12,0 10,7 - - 18 10 - - ZZW 1000,5 12 60 0,0
16.08.2018 07:00:00 10,2 9,5 - - 8 4 - - ZZW 1000,4 11 6 0,0
16.08.2018 06:00:00 10,7 9,7 - - 18 10 - - ZW 1000,3 9 0 0,0
16.08.2018 05:00:00 10,7 10,2 - - 18 10 - - ZZW 1000,6 8 0 0,0
16.08.2018 04:00:00 10,8 10,2 - - 21 11 - - ZW 1000,3 8 0 0,0
16.08.2018 03:00:00 11,3 10,6 - - 28 15 - - ZW 1000,4 10 0 0,0
16.08.2018 02:00:00 11,6 10,6 - - 35 19 50 27 WZW 1000,0 13 0 0,0
16.08.2018 01:00:00 12,8 11,3 - - 39 21 50 27 ZW 999,9 22 - 0,0
16.08.2018 00:00:00 13,1 11,1 - - 29 16 - - ZW 1000,1 23 0 0,0
15.08.2018 23:00:00 12,0 11,6 - - 16 9 - - Z 1000,2 20 0 0,0
15.08.2018 22:00:00 12,2 11,9 - - 13 7 - - Z 1000,4 19 0 0,0
15.08.2018 21:00:00 11,9 11,7 - - 21 11 - - Z 1000,5 17 0 0,0
15.08.2018 20:00:00 11,9 11,6 - - 15 8 - - Z 1000,5 18 0 1,2
15.08.2018 19:00:00 11,9 11,4 - - 15 8 - - ZZW 1001,3 7 0 3,2
15.08.2018 18:00:00 12,0 11,5 - - 26 14 - - WZW 1001,4 6 0 1,2
15.08.2018 17:00:00 12,6 11,5 - - 22 12 - - ZW 1001,9 12 0 0,4
15.08.2018 16:00:00 14,2 12,9 - - 26 14 - - ZZW 1002,4 23 0 0,0
15.08.2018 15:00:00 15,6 12,5 - - 22 12 - - ZZW 1002,4 25 0 0,0
15.08.2018 14:00:00 15,5 13,3 - - 35 19 - - ZW 1002,7 35 6 0,0
15.08.2018 13:00:00 14,7 13,0 - - 31 17 - - Z 1003,3 35 0 0,0
15.08.2018 12:00:00 14,4 12,6 - - 31 17 46 25 Z 1003,7 40 0 0,0
15.08.2018 11:00:00 14,2 12,3 - - 29 16 - - Z 1003,8 35 0 0,0
15.08.2018 10:00:00 13,5 11,7 14,0 11,7 24 13 - - Z 1004,1 29 0 0,0
15.08.2018 09:00:00 13,2 11,6 - - 24 13 - - ZZW 1004,0 40 18 0,0
15.08.2018 08:00:00 12,6 11,7 - - 31 17 - - ZW 1003,8 15 18 0,0
15.08.2018 07:00:00 11,9 11,5 - - 28 15 - - ZW 1003,9 14 0 0,0
15.08.2018 06:00:00 12,0 11,8 - - 29 16 - - WZW 1003,8 19 0 0,0
15.08.2018 05:00:00 12,3 12,1 - - 29 16 - - WZW 1004,2 8 0 0,0

tt = temperatuur
td = dauwpunt
tt -20cm = temperatuur -20cm
tt -100cm = temperatuur -100cm
ff = windsnelheid
fx = windstoten
dd = windrichting
ppp = luchtdruk
vv = zicht
sd = Zonneschijnduur
rr = neerslag

Weerstations in de omgeving